This is the latest recevied weather packets stored in our database for station/object WMKJ. If no packets are shown the sender has not sent any weather packets the latest 10 day(s).
| Time | Temp. | Humidity | Pressure | Rain* | Wind** | Luminosity | Snow |
|---|---|---|---|---|---|---|---|
| 1777565417 | 25.56° C | 88% | 1010 hPa | - | - | - | - |
| 1777561817 | 25.56° C | 88% | 1010 hPa | - | - | - | - |
| 1777558217 | 26.67° C | 83% | 1010 hPa | - | - | - | - |
| 1777554626 | 26.67° C | 83% | 1009 hPa | - | - | - | - |
| 1777551017 | 26.67° C | 78% | 1008 hPa | - | - | - | - |
| 1777547417 | 26.67° C | 83% | 1007 hPa | - | - | - | - |
| 1777543816 | 27.78° C | 78% | 1007 hPa | - | - | - | - |
| 1777540226 | 30° C | 70% | 1006 hPa | - | - | - | - |
| 1777536616 | 33.89° C | 59% | 1006 hPa | - | - | - | - |
| 1777533013 | 35° C | 56% | 1007 hPa | - | - | - | - |
| 1777529416 | 33.89° C | 56% | 1008 hPa | - | - | - | - |
| 1777525825 | 32.78° C | 59% | 1009 hPa | - | - | - | - |
| 1777522212 | 31.67° C | 66% | 1010 hPa | - | - | - | - |
| 1777518616 | 31.67° C | 66% | 1010 hPa | - | - | - | - |
| 1777515016 | 30° C | 74% | 1010 hPa | - | - | - | - |
| 1777511416 | 27.78° C | 83% | 1010 hPa | - | - | - | - |
| 1777507833 | 25.56° C | 88% | 1009 hPa | - | - | - | - |
| 1777504215 | 23.89° C | 94% | 1009 hPa | - | - | - | - |
| 1777501189 | 23.89° C | 94% | 1009 hPa | - | - | - | - |
| 1777500615 | 25° C | 88% | 1008 hPa | - | - | - | - |
| 1777497015 | 25° C | 88% | 1008 hPa | - | - | - | - |
| 1777493988 | 25° C | 88% | 1008 hPa | - | - | - | - |
| 1777493430 | 25° C | 88% | 1009 hPa | - | - | - | - |
| 1777489815 | 25° C | 88% | 1009 hPa | - | - | - | - |
| 1777486215 | 25° C | 94% | 1009 hPa | - | - | - | - |
* Rain since midnight (hover to see other rain measurements)
** Current wind speed in m/s (hover to see current wind gust speed)